Regional Weather Roundup
Issued by NWS Green Bay, WI

Home | Current Version | Previous Version | Text Only | Print | Product List | Glossary On
Versions: 1 2 3 4 5 6 7 8 9 10 11 12 13 14 15 16 17 18 19 20 21 22 23 24 25 26 27 28 29 30 31 32 33 34 35 36 37 38 39 40 41 42 43 44 45 46 47 48 49 50
000
ASUS43 KGRB 201310
RWRGRB

NORTH-CENTRAL AND NORTHEAST WISCONSIN REGIONAL WEATHER ROUNDUP
NATIONAL WEATHER SERVICE GREEN BAY WI
800 AM CDT WED AUG 20 2014

WIZ005-009-010>012-018-019-201400-
NORTH CENTRAL WISCONSIN

CITY           SKY/WX    TMP DP  RH WIND       PRES   REMARKS
IRONWOOD       CLOUDY    57  57 100 W3        29.86S
MANITOWISH WTR CLOUDY    57  57 100 CALM      29.88S
ARBOR VITAE    CLOUDY    59  57  92 N3        29.88S
EAGLE RIVER    CLOUDY    58  57  97 N5        29.87S
LAND O LAKES   CLOUDY    58  57  99 CALM      29.89R
RHINELANDER    CLOUDY    59  57  93 CALM      29.88R
PHILLIPS       CLOUDY    58  57  97 CALM      29.88R
ANTIGO         CLOUDY    59  59  99 NW7       29.86S
TOMAHAWK       CLOUDY    59  58  96 NW5       29.88S
MERRILL        CLOUDY    60  60  97 NW5       29.86S
$$

WIZ013-073-201400-
NORTHEAST WISCONSIN

CITY           SKY/WX    TMP DP  RH WIND       PRES   REMARKS
IRON MOUNTAIN  CLOUDY    59  56  89 NW8       29.83R
MARINETTE      CLOUDY    63  57  82 N7        29.82R
OCONTO         CLOUDY    62  62 100 CALM      29.82R
$$

WIZ017-030-035>037-045-201400-
CENTRAL WISCONSIN

CITY           SKY/WX    TMP DP  RH WIND       PRES   REMARKS
MEDFORD        CLOUDY    58  58  98 N9        29.87R
WAUSAU         CLOUDY    61  59  93 N7        29.84F
MOSINEE        CLOUDY    59  59 100 N12       29.86S
MARSHFIELD     FOG       60  59  96 N5        29.86R VSB 1
WISC RAPIDS    SUNNY     65  62  90 CALM      29.86R
STEVENS POINT  CLOUDY    58  58  99 N7        29.85R FOG
WAUPACA        MOSUNNY   65  64  94 N3        29.84R
SHAWANO        CLOUDY    64  61  91 CALM      29.84R
CLINTONVILLE   MOSUNNY   63  59  88 NW7       29.82F
$$

WIZ038-039-048-051-201400-
FOX VALLEY

CITY           SKY/WX    TMP DP  RH WIND       PRES   REMARKS
NWS GREEN BAY  PTSUNNY   64  61  90 NW3       29.83R
APPLETON       PTSUNNY   63  63 100 N7        29.84R
OSHKOSH        SUNNY     66  63  90 N3        29.83R
FOND DU LAC    SUNNY     67  62  84 CALM      29.84R
$$

WIZ022-050-052-201400-
EAST CENTRAL WISCONSIN

CITY           SKY/WX    TMP DP  RH WIND       PRES   REMARKS
STURGEON BAY   CLOUDY    63  59  88 NW9       29.82S
MANITOWOC      SUNNY     65  62  90 N5        29.83R
SHEBOYGAN      SUNNY     65  63  93 CALM      29.83R
$$

LMZ563-521-522-541>543-201400-
LAKESHORE

STATION/POSITION TIME  TEMP    WIND        PRES    VSBY  WAVE
                       AIR SEA DIR/SP/G                  HT/PER
                 (UTC) (F)     (DEG/KT/KT) (MB)    (MI)  (FT/S)
SHEBOYGAN LKSHOR 1300   67 64  350/  2/  2 1010.1R
KEWAUNEE LKSHORE 1300   63     300/  3/  4 1008.8F
TWO RIVERS CG    1200   64 72                N/A       6   1
NORTHPORT PIER   1300   62     340/ 10/ 12 1009.8R
N MID LAKE BUOY  1300   60 62  330/ 10/ 12 1008.7R         1/ 3
S GREEN BAY BUOY 1300   65     VRB  8      1010.9S
SISTER BAY LKSHO 1200   62     350/ 12/ 13   N/A
STURGEON BAY CG  1200   63 64  340/  4     1009.4      6   1
CHAMBERS ISLAND  1300   62     320/ 10/ 11 1009.8S
MENOMINEE LKSHOR 1300   63     300/  4/  6 1010.4R
$$


USA.gov is the U.S. government's official web portal to all federal, state and local government web resources and services.